Flag for Netherlands Weather past 2 weeks in Amsterdam, Netherlands

Now
66 °F

Clear.


Feels Like: 66 °F
Forecast: 65 / 91 °F
Wind: 5 mph from Northwest

Location: Amsterdam Schiphol Airport

Current Time: Jul 3, 2015 at 2:12:26 AM

Latest Report: Jul 3, 2015 at 1:55 AM


Visibility: 10 mi

Pressure: 30.21 "Hg

Humidity: 83%

Dew point: 61 °F

Location of AmsterdamLocation

Historic Weather in Amsterdam — Graph

°F

Amsterdam temperature yesterday

Maximum temperature yesterday: 86 °F (at 12:25 PM)
Minimum temperature yesterday: 70 °F (at 5:55 PM)
Average temperature yesterday: 77 °F

Past Weeks' High & Low Weather Summary

 TemperatureHumidityPressure
High91 °F (Jul 1, 3:55 PM)100% (Jun 18, 2:55 AM)30.21 "Hg (Jun 18, 2:55 AM)
Low50 °F (Jun 20, 2:55 AM)23% (Jun 26, 4:55 PM)29.68 "Hg (Jun 22, 7:25 PM)
Average63 °F71%30.05 "Hg
* Reported Jun 18 12:25 AM — Jul 3 12:55 AM, Amsterdam, Weather by CustomWeather, © 2015

Note: Actual official high and low records may vary slightly from our data, if they occured in-between our weather recording intervals... More about our weather records

Advertising

Amsterdam weather history for previous 24 hours

 ConditionsComfort  
Time TempWeatherWind HumidityBarometerVisibility
12:55 AM
Fri, Jul 3
70 °FPassing clouds.5 mph78%30.18 "HgN/A
12:25 AM70 °FPassing clouds.5 mph78%30.18 "HgN/A
11:55 PM
Thu, Jul 2
72 °FPassing clouds.3 mph73%30.18 "HgN/A
11:25 PM72 °FClear.6 mph78%30.18 "Hg10 mi
10:55 PM72 °FPassing clouds.7 mph73%30.15 "HgN/A
10:25 PM73 °FScattered showers. Scattered clouds.8 mph74%30.15 "HgN/A
9:55 PM73 °FScattered showers. Scattered clouds.5 mph74%30.12 "HgN/A
9:25 PM75 °FScattered showers. Passing clouds.5 mph69%30.12 "HgN/A
8:55 PM75 °FSprinkles. Passing clouds.3 mph61%30.09 "HgN/A
8:25 PM75 °FSprinkles. Passing clouds.3 mph61%30.09 "HgN/A
7:55 PM77 °FPassing clouds.9 mph54%30.07 "HgN/A
7:25 PM77 °FPassing clouds.13 mph57%30.07 "HgN/A
6:55 PM77 °FPassing clouds.13 mph61%30.07 "HgN/A
6:25 PM73 °FPassing clouds.12 mph74%30.09 "HgN/A
5:55 PM70 °FSunny.20 mph78%30.12 "Hg10 mi
5:25 PM75 °FSunny.13 mph69%30.09 "Hg10 mi
4:55 PM75 °FPassing clouds.10 mph74%30.07 "HgN/A
4:25 PM73 °FPassing clouds.9 mph74%30.07 "HgN/A
3:55 PM75 °FPassing clouds.22 mph69%30.09 "HgN/A
3:25 PM81 °FPassing clouds.13 mph62%30.07 "HgN/A
2:55 PM81 °FSunny.15 mph62%30.07 "Hg10 mi
2:25 PM82 °FPassing clouds.12 mph58%30.04 "HgN/A
1:55 PM82 °FPassing clouds.10 mph55%30.04 "HgN/A
1:25 PM84 °FPassing clouds.7 mph55%30.04 "HgN/A
12:55 PM84 °FPassing clouds.9 mph58%30.04 "HgN/A
12:25 PM86 °FPassing clouds.6 mph55%30.04 "HgN/A
11:55 AM84 °FSunny.2 mph55%30.01 "Hg10 mi
11:25 AM84 °FPassing clouds.3 mph55%30.01 "HgN/A
10:55 AM82 °FPassing clouds.6 mph55%30.01 "HgN/A
10:25 AM82 °FPassing clouds.9 mph55%30.01 "HgN/A
9:55 AM81 °FPassing clouds.8 mph54%30.01 "HgN/A
9:25 AM81 °FPassing clouds.8 mph54%30.01 "HgN/A
8:55 AM81 °FSunny.9 mph54%30.01 "Hg10 mi
8:25 AM79 °FPassing clouds.10 mph58%30.01 "HgN/A
7:55 AM77 °FPassing clouds.10 mph61%30.01 "HgN/A
7:25 AM77 °FSunny.8 mph57%29.98 "Hg10 mi
6:55 AM75 °FPassing clouds.8 mph61%29.98 "HgN/A
6:25 AM75 °FSunny.8 mph61%29.98 "Hg10 mi
5:55 AM73 °FClear.8 mph65%29.98 "Hg10 mi
5:25 AM73 °FPassing clouds.6 mph65%29.98 "HgN/A
4:55 AM73 °FClear.8 mph65%29.98 "Hg10 mi
4:25 AM75 °FClear.10 mph57%29.98 "Hg10 mi
3:55 AM75 °FClear.12 mph57%29.98 "Hg10 mi
3:25 AM75 °FClear.12 mph57%29.98 "Hg10 mi
2:55 AM77 °FClear.13 mph54%29.98 "Hg10 mi
2:25 AM77 °FClear.12 mph54%29.98 "Hg10 mi
Weather by CustomWeather, © 2015

See weather overviewHow to use our weather pages